User: anonymous   Login
Location: Heisede
(52.2582°N, 9.8523°E)
Time: 06:32:28
(UTC+00:00)
Language:

Cosmos 1833 Rocket - Orbit

View from above orbital plane
View from above orbital plane
View from above satellite
View from above satellite

Ground track
Ground track

The orbit is defined by the following mean orbital elements,

1 17590U          26067.91585708 +.00000000 +00000-0 +44680-4 0 00005
2 17590  71.0011 278.1262 0003494 144.3878 215.7480 14.17165806    03
Epoch (UTC): 08 March 2026 21:58:50
Eccentricity: 0.0003494
inclination: 71.0011°
perigee height: 832 km
apogee height: 837 km
right ascension of ascending node: 278.1262°
argument of perigee: 144.3878°
revolutions per day: 14.17165806
mean anomaly at epoch: 215.7480°

The dashed part of the orbit path shows where the satellite is in the earth's shadow,  

DLR